Flag for Australia Weather past 2 weeks in Cairns, Queensland, Australia

Now
70 °F

Passing clouds.


Feels Like: 70 °F
Forecast: 69 / 79 °F
Wind: 14 mph from South

Location: Cairns Airport

Current Time: Jul 31, 2015 at 11:38:56 PM

Latest Report: Jul 31, 2015 at 11:00 PM


Visibility: N/A

Pressure: 30.07 "Hg

Humidity: 78%

Dew point: 63 °F

Location of CairnsLocation

Historic Weather in Cairns — Graph

°F

Cairns temperature yesterday

Maximum temperature yesterday: 79 °F (at 12:30 PM)
Minimum temperature yesterday: 68 °F (at 12:30 AM)
Average temperature yesterday: 71 °F

Past Weeks' High & Low Weather Summary

 TemperatureHumidityPressure
High82 °F (Jul 24, 1:00 PM)94% (Jul 17, 12:30 AM)30.18 "Hg (Jul 17, 12:30 AM)
Low52 °F (Jul 18, 3:30 AM)29% (Jul 18, 11:00 AM)30.01 "Hg (Jul 24, 2:30 PM)
Average71 °F74%30.10 "Hg
* Reported Jul 16 10:00 PM — Jul 31 10:30 PM, Cairns, Weather by CustomWeather, © 2015

Note: Actual official high and low records may vary slightly from our data, if they occured in-between our weather recording intervals... More about our weather records

Advertising

Cairns weather history for previous 24 hours

 ConditionsComfort  
Time TempWeatherWind HumidityBarometerVisibility
10:30 PM
Fri, Jul 31
68 °FPassing clouds.13 mph83%30.09 "HgN/A
10:00 PM70 °FPassing clouds.12 mph78%30.09 "HgN/A
9:30 PM70 °FPassing clouds.10 mph78%30.07 "HgN/A
9:00 PM70 °FPassing clouds.8 mph78%30.09 "HgN/A
8:30 PM70 °FScattered showers. Passing clouds.8 mph78%30.07 "HgN/A
8:00 PM70 °FSprinkles. Passing clouds.16 mph83%30.07 "HgN/A
7:30 PM70 °FScattered showers. Passing clouds.10 mph78%30.07 "HgN/A
7:00 PM70 °FPassing clouds.12 mph78%30.04 "HgN/A
6:30 PM72 °FPassing clouds.18 mph69%30.04 "HgN/A
6:00 PM72 °FPassing clouds.20 mph69%30.04 "HgN/A
5:30 PM73 °FPassing clouds.20 mph61%30.04 "HgN/A
5:00 PM73 °FScattered clouds.21 mph65%30.01 "HgN/A
4:30 PM75 °FScattered clouds.23 mph61%30.01 "HgN/A
4:00 PM75 °FPartly sunny.21 mph61%30.01 "HgN/A
3:30 PM77 °FPassing clouds.21 mph54%30.01 "HgN/A
3:00 PM77 °FPassing clouds.23 mph57%30.01 "HgN/A
2:30 PM77 °FPassing clouds.23 mph54%30.04 "HgN/A
2:00 PM77 °FPassing clouds.23 mph57%30.04 "HgN/A
1:30 PM79 °FPassing clouds.22 mph51%30.04 "HgN/A
1:00 PM77 °FPassing clouds.23 mph54%30.04 "HgN/A
12:30 PM77 °FPassing clouds.23 mph57%30.07 "HgN/A
12:00 PM77 °FScattered clouds.22 mph57%30.09 "HgN/A
11:30 AM75 °FScattered clouds.23 mph65%30.09 "HgN/A
11:00 AM73 °FScattered showers. Broken clouds.22 mph74%30.09 "HgN/A
10:00 AM72 °FScattered clouds.13 mph78%30.12 "HgN/A
9:30 AM70 °FScattered clouds.15 mph88%30.12 "HgN/A
9:00 AM70 °FScattered showers. Broken clouds.10 mph88%30.12 "HgN/A
8:30 AM68 °FScattered showers. Scattered clouds.16 mph88%30.12 "HgN/A
7:59 AM66 °FSprinkles. Broken clouds.12 mph94%30.12 "Hg4 mi
7:30 AM66 °FScattered showers. Broken clouds.13 mph88%30.09 "HgN/A
7:00 AM66 °FScattered showers. Scattered clouds.15 mph88%30.09 "HgN/A
6:30 AM66 °FSprinkles. Partly cloudy.9 mph88%30.09 "HgN/A
6:00 AM66 °FSprinkles. Partly cloudy.12 mph88%30.09 "Hg5 mi
5:30 AM66 °FSprinkles. Partly cloudy.10 mph88%30.09 "Hg5 mi
5:00 AM66 °FSprinkles. Passing clouds.12 mph88%30.07 "HgN/A
4:30 AM66 °FPassing clouds.13 mph88%30.07 "HgN/A
4:00 AM66 °FScattered showers. Passing clouds.12 mph88%30.09 "HgN/A
3:30 AM66 °FSprinkles. Passing clouds.12 mph88%30.09 "HgN/A
3:00 AM66 °FSprinkles. Passing clouds.12 mph88%30.09 "HgN/A
2:30 AM68 °FSprinkles. Passing clouds.10 mph78%30.09 "HgN/A
2:00 AM68 °FScattered showers. Passing clouds.9 mph78%30.09 "HgN/A
1:30 AM68 °FPassing clouds.9 mph83%30.12 "HgN/A
1:00 AM66 °FPassing clouds.12 mph88%30.12 "HgN/A
12:30 AM68 °FPassing clouds.15 mph78%30.12 "HgN/A
12:00 AM68 °FScattered showers. Passing clouds.10 mph78%30.15 "HgN/A
11:30 PM
Thu, Jul 30
68 °FPassing clouds.10 mph78%30.12 "HgN/A
11:00 PM68 °FScattered showers. Passing clouds.13 mph78%30.12 "HgN/A
Weather by CustomWeather, © 2015

See weather overviewHow to use our weather pages